Content
SEND FEEDBACK

Daily
Averages
Monthly
Summary
Turkmenistan

ASHGABAT, TURKMENISTAN


Home > Asia > Turkmenistan
Elevation: 775 feet     Latitude: 37 58N     Longitude: 058 20E

WEATHER
 
SELECT A DAY
Number of Records: 177,237;   Date Range: 3/15/97 - 7/26/14
 
SHARE

PRINT THIS DATA

[ ← Previous Day ]
WEATHER ALMANAC - DECEMBER 15, 2013
[ Next Day → ]
[ °C ]   °F
Weather ElementAverageHighLow
Temperature45.3 °F53.6 °F (1:00 pm)39.2 °F (1:00 am)
Dewpoint39 °F41 °F (6:30 am)32 °F (11:00 pm)
Humidity78.4 %100 % (6:30 am)46 % (2:00 pm)
Barometer30.05 in30.20 in (11:00 pm)29.98 in (1:00 am)
Wind Speed6.3 mph13.4 mph (1:30 am)
Weather ElementAverage
Visibility4.8 mi
Wind DirectionSSW (217.8 °)

Weather ElementTotal
Precipitation---
Heating Degree Days18.6 (Base 65)
Averaged from 37 records on December 15, 2013
WEATHER CONDITIONS BREAKOUT
WIND DIRECTION BREAKOUT
WEATHER BY HOUR - DECEMBER 15, 2013
[ °C ]   °F
Local TimeTemperatureDewpointHumidityBarometerVisibilityWind DirectionWind SpeedGust SpeedPrecipitationEventsConditions
1:00 AM39.2 °F37.4 °F93 %29.98 in4.3 miNW (320°)11.2 mphMostly Cloudy
1:30 AM41.0 °F39.2 °F93 %29.98 inWNW (300°)13.4 mphMostly Cloudy
2:00 AM41.0 °F39.0 °F88 %30.02 in1.0 miWest (280°)8.9 mphRainLight Rain
2:00 AM41.0 °F39.2 °F93 %29.98 in1.7 miWNW (300°)6.7 mphRainLight Rain
2:30 AM41.0 °F39.2 °F93 %29.98 in1.8 miNW (310°)6.7 mphRainLight Rain
3:00 AM41.0 °F39.2 °F93 %30.01 inNW (310°)4.5 mphRainLight Rain
3:30 AM41.0 °F39.2 °F93 %29.98 in1.9 miENE (60°)2.2 mphRainLight Rain
4:00 AM41.0 °F39.2 °F93 %29.98 in1.7 miEast (100°)2.2 mphOvercast
4:30 AM41.0 °F39.2 °F93 %29.98 inSE (140°)4.5 mphOvercast
5:00 AM41.0 °F39.2 °F93 %29.98 inSSE (150°)6.7 mphOvercast
5:00 AM41.0 °F39.0 °F91 %30.02 in1.0 miSSE (150°)6.7 mphMist
5:30 AM41.0 °F39.2 °F93 %29.98 in1.7 miSE (140°)4.5 mphOvercast
6:00 AM41.0 °F39.2 °F93 %29.98 in1.5 miNorth (360°)4.5 mphMostly Cloudy
6:30 AM41.0 °F41.0 °F100 %30.01 in1.9 miWNW (300°)11.2 mphMostly Cloudy
7:00 AM42.8 °F41.0 °F93 %30.01 inWest (270°)6.7 mphRainLight Rain Showers
8:00 AM43.0 °F40.0 °F87 %30.05 in6.0 miSSW (210°)4.5 mphRainLight Rain Showers
8:00 AM44.6 °F41.0 °F87 %30.01 in5.0 miSSW (200°)4.5 mphOvercast
9:00 AM46.4 °F41.0 °F81 %30.04 in6.2 miSSW (200°)4.5 mphOvercast
10:00 AM46.4 °F41.0 °F81 %30.06 in6.2 miSW (220°)4.5 mphRainLight Rain Showers
11:00 AM48.0 °F40.0 °F66 %30.08 in6.0 miSE (140°)4.5 mphRainLight Rain Showers
11:00 AM48.2 °F41.0 °F76 %30.04 in6.2 miSE (140°)4.5 mphOvercast
12:00 PM51.8 °F39.2 °F62 %30.04 in6.2 miSSE (160°)6.7 mphOvercast
1:00 PM53.6 °F35.6 °F51 %30.01 in6.2 miNE (50°)4.5 mphOvercast
2:00 PM52.0 °F37.0 °F46 %30.06 in6.0 miNNW (340°)11.2 mphOvercast
2:00 PM51.8 °F39.2 °F62 %30.04 in6.2 miNNW (340°)11.2 mphOvercast
3:00 PM51.8 °F37.4 °F58 %30.04 in6.2 miNNW (340°)11.2 mphOvercast
4:00 PM50.0 °F39.2 °F66 %30.06 in6.2 miNNW (340°)6.7 mphOvercast
5:00 PM50.0 °F39.2 °F66 %30.09 in6.2 miNorth (350°)2.2 mphMostly Cloudy
5:00 PM50.0 °F39.0 °F57 %30.10 in6.0 miNorth (10°)4.5 mphPartly Cloudy
6:00 PM48.2 °F39.2 °F71 %30.09 in6.2 miVariable2.2 mphOvercast
7:00 PM48.2 °F39.2 °F71 %30.12 in6.2 miSE (140°)6.7 mphOvercast
8:00 PM47.0 °F39.0 °F67 %30.16 in6.0 miSSE (160°)6.7 mphPartly Cloudy
8:00 PM46.4 °F39.2 °F76 %30.12 in6.2 miSSE (160°)6.7 mphMostly Cloudy
9:00 PM46.4 °F39.2 °F76 %30.15 in6.2 miSSW (200°)6.7 mphMostly Cloudy
10:00 PM46.4 °F37.4 °F71 %30.18 in6.2 miWest (260°)4.5 mphMostly Cloudy
11:00 PM45.0 °F37.0 °F66 %30.20 in6.0 miWNW (300°)6.7 mphPartly Cloudy
11:00 PM44.6 °F32.0 °F61 %30.18 in6.2 miNW (310°)6.7 mphMostly Cloudy
Hourly data recorded from UTAA, located miles away from Ashgabat, Turkmenistan







STORIES FROM OUR PARTNERS